Regional Weather Roundup
Issued by NWS Cleveland, OH

Home | Current Version | Previous Version | Graphics & Text | Print | Product List | Glossary On
Versions: 1 2 3 4 5 6 7 8 9 10 11 12 13 14 15 16 17 18 19 20 21 22 23 24 25 26 27 28 29 30 31 32 33 34 35 36 37 38 39 40 41 42 43 44 45 46 47 48 49 50
000
ASUS41 KCLE 170010
RWRCLE
OHIO REGIONAL WEATHER ROUNDUP
NATIONAL WEATHER SERVICE WILMINGTON, OH
700 PM EST MON JAN 16 2017

NOTE: "FAIR" INDICATES FEW OR NO CLOUDS BELOW 12,000 FEET WITH NO
SIGNIFICANT WEATHER AND/OR OBSTRUCTIONS TO VISIBILITY.

OHZ001>008-015>018-024>027-034-035-043-044-170100-
   NORTHWEST OHIO

CITY           SKY/WX    TMP DP  RH WIND       PRES   REMARKS
DEFIANCE       FOG       36  33  89 E8        30.15F VSB 3/4
FINDLAY        CLOUDY    38  35  89 E9        30.15F FOG
TOLEDO EXPRESS CLOUDY    34  34 100 E6        30.16F FOG     WCI  29
TOLEDO EXEC    CLOUDY    34  33  96 E5        30.19F FOG     WCI  30
LIMA           CLOUDY    39  38  96 E9        30.13F FOG
$$

OHZ009>014-019>023-028>033-038-089-170100-
   NORTHEAST OHIO

CITY           SKY/WX    TMP DP  RH WIND       PRES   REMARKS
CLE-HOPKINS    CLOUDY    39  32  76 S7        30.23F
CLE-LAKEFRONT  CLOUDY    39  31  72 SE6       30.19F
CUY CO. ARPT   CLOUDY    39  32  75 SE10      30.21F
LORAIN-ELYRIA  CLOUDY    36  33  89 S9        30.20F FOG
ASHTABULA      CLOUDY    36  23  59 SE5       30.23F
AKRON-CANTON   CLOUDY    37  32  82 SE7       30.21S HAZE
WOOSTER        CLOUDY    36  34  92 SE5       30.21S
MANSFIELD      CLOUDY    37  36  96 SE9       30.18F FOG
YOUNGSTOWN     CLOUDY    36  26  67 SE9       30.21F
$$

OHZ042-051>053-060>062-070>072-077>081-170100-
  SOUTHWEST OHIO

CITY           SKY/WX    TMP DP  RH WIND       PRES   REMARKS
CINC-COVINGTON LGT RAIN  49  49 100 SE5       30.14F FOG
CINC-LUNKEN    LGT RAIN  48  48 100 CALM      30.16F FOG
HAMILTON       LGT RAIN  48  48 100 CALM      30.16F FOG
DAYTON         LGT RAIN  47  46  97 SE7       30.16S FOG
WRIGHT-PAT AFB CLOUDY    47  47 100 E5        30.15F
DAYTON GENERAL LGT RAIN  48  46  93 E3        30.14F
WILMINGTON     LGT RAIN  47  46  97 VRB3      30.16S
$$

OHZ036-037-039>041-045>050-054>059-063>069-073>076-082>088-170100-
  CENTRAL AND SOUTHEAST OHIO

CITY           SKY/WX    TMP DP  RH WIND       PRES   REMARKS
COLUMBUS       CLOUDY    46  46 100 E5        30.18F
OSU AIRPORT    MOCLDY    43  43 100 E6        30.17F FOG
BOLTON FIELD   CLOUDY    45  43  93 CALM      30.19S
RICKENBACK AFB   N/A     44  43  98 E3        30.18F
NEWARK         MOCLDY    41  39  93 CALM      30.20R FOG
MARION         CLOUDY    40  37  89 SE10      30.17F FOG
LANCASTER      FAIR      46  43  89 E5        30.19F
ZANESVILLE     CLOUDY    42  39  89 NE5       30.20F
NEW PHILLY     CLOUDY    40  36  86 SE5       30.23F
$$




USA.gov is the U.S. government's official web portal to all federal, state and local government web resources and services.